QPF
0.00 0.00 0.00 0.00 0.00 0.00 0.00 0.00 0.00 0.00 0.00 0.00 0.00 0.00 0.00 0.00 0.00 0.00 0.00 0.00 0.00 0.00 0.06 0.18 0.04 0.01 0.03 0.02 0.05 0.02 0.00 0.00 0.00 0.00 0.00 0.00 0.00 0.00 0.00 0.00 0.00 0.00 0.00 0.00 0.00 0.00 0.00 0.00 0.00
0.00 0.00 0.00 0.00 0.00 0.00 0.00 0.00 0.00 0.00 0.00 0.00 0.00 0.00 0.00 0.00 0.00 0.00 0.00 0.00 0.00 0.00 0.00 0.05 0.03 0.03 0.01 0.02 0.03 0.01 0.00 0.00 0.00 0.00 0.00 0.00 0.00 0.00 0.00 0.00 0.00 0.00 0.00 0.00 0.00 0.00 0.00 0.00 0.00
0.00 0.00 0.00 0.00 0.00 0.00 0.00 0.00 0.00 0.00 0.00 0.00 0.00 0.00 0.00 0.00 0.00 0.00 0.00 0.00 0.00 0.00 0.00 0.00 0.03 0.02 0.01 0.04 0.02 0.01 0.00 0.00 0.00 0.00 0.00 0.00 0.00 0.00 0.00 0.00 0.00 0.00 0.00 0.00 0.01 0.00 0.00 0.00 0.00
0.00 0.00 0.00 0.00 0.00 0.00 0.00 0.00 0.00 0.00 0.00 0.00 0.00 0.00 0.00 0.00 0.00 0.00 0.00 0.00 0.00 0.00 0.00 0.02 0.01 0.00 0.01 0.01 0.01 0.00 0.00 0.00 0.00 0.00 0.00 0.00 0.00 0.00 0.00 0.00 0.00 0.00 0.00 0.00 0.00 0.00 0.00 0.01 0.00
0.00 0.00 0.00 0.00 0.00 0.00 0.00 0.00 0.00 0.00 0.00 0.00 0.00 0.00 0.00 0.00 0.00 0.00 0.00 0.00 0.00 0.00 0.01 0.02 0.04 0.02 0.01 0.01 0.00 0.00 0.00 0.00 0.00 0.00 0.00 0.00 0.00 0.00 0.00 0.00 0.00 0.00 0.00 0.00 0.00 0.00 0.00 0.00 0.00
0.00 0.00 0.00 0.00 0.00 0.00 0.00 0.00 0.00 0.00 0.00 0.00 0.00 0.00 0.00 0.00 0.00 0.00 0.00 0.00 0.00 0.00 0.00 0.01 0.02 0.02 0.00 0.00 0.00 0.00 0.00 0.00 0.00 0.00 0.00 0.00 0.00 0.00 0.00 0.00 0.00 0.00 0.00 0.00 0.00 0.00 0.01 0.00 0.01
0.00 0.00 0.00 0.00 0.00 0.00 0.00 0.00 0.00 0.00 0.00 0.00 0.00 0.00 0.00 0.00 0.00 0.00 0.00 0.00 0.00 0.00 0.00 0.01 0.01 0.01 0.00 0.00 0.00 0.00 0.00 0.00 0.00 0.00 0.00 0.02 0.00 0.00 0.00 0.00 0.01 0.01 0.03 0.01 0.00 0.04 0.02 0.00 0.01
0.00 0.00 0.00 0.00 0.00 0.00 0.00 0.00 0.00 0.00 0.00 0.00 0.00 0.00 0.00 0.00 0.00 0.00 0.00 0.00 0.00 0.00 0.00 0.00 0.00 0.00 0.00 0.00 0.00 0.00 0.00 0.00 0.00 0.01 0.02 0.03 0.00 0.00 0.00 0.02 0.00 0.01 0.05 0.08 0.02 0.02 0.01 0.02 0.01
0.00 0.00 0.00 0.00 0.00 0.00 0.00 0.00 0.00 0.00 0.00 0.00 0.00 0.00 0.00 0.00 0.00 0.00 0.00 0.00 0.00 0.00 0.00 0.00 0.00 0.00 0.00 0.00 0.00 0.00 0.00 0.00 0.00 0.00 0.00 0.02 0.00 0.00 0.00 0.01 0.00 0.00 0.01 0.06 0.04 0.01 0.01 0.04 0.01
0.00 0.00 0.00 0.00 0.00 0.00 0.00 0.00 0.00 0.00 0.00 0.00 0.00 0.00 0.00 0.00 0.00 0.00 0.00 0.00 0.00 0.00 0.00 0.00 0.00 0.00 0.00 0.00 0.00 0.00 0.00 0.00 0.00 0.00 0.01 0.02 0.00 0.00 0.00 0.00 0.00 0.00 0.00 0.04 0.06 0.03 0.03 0.01 0.00
0.00 0.00 0.00 0.00 0.00 0.00 0.00 0.00 0.00 0.00 0.00 0.00 0.00 0.00 0.00 0.00 0.00 0.00 0.00 0.00 0.00 0.00 0.00 0.00 0.00 0.00 0.00 0.00 0.00 0.00 0.00 0.00 0.00 0.00 0.00 0.00 0.00 0.00 0.00 0.00 0.00 0.00 0.01 0.00 0.02 0.04 0.00 0.00 0.00
0.00 0.00 0.00 0.00 0.00 0.00 0.00 0.00 0.00 0.00 0.00 0.00 0.00 0.00 0.00 0.00 0.00 0.00 0.00 0.00 0.00 0.00 0.00 0.00 0.00 0.00 0.00 0.00 0.00 0.00 0.00 0.00 0.00 0.00 0.00 0.00 0.01 0.00 0.00 0.00 0.00 0.03 0.03 0.00 0.00 0.00 0.00 0.00 0.00
0.00 0.00 0.00 0.00 0.00 0.00 0.00 0.00 0.00 0.00 0.00 0.00 0.00 0.00 0.00 0.00 0.00 0.00 0.00 0.00 0.00 0.00 0.00 0.00 0.00 0.00 0.00 0.00 0.00 0.00 0.00 0.00 0.00 0.00 0.00 0.00 0.03 0.14 0.10 0.02 0.07 0.08 0.04 0.02 0.05 0.04 0.02 0.00 0.00
0.00 0.00 0.00 0.00 0.00 0.00 0.00 0.00 0.00 0.00 0.00 0.00 0.00 0.00 0.00 0.00 0.00 0.00 0.00 0.00 0.00 0.00 0.00 0.00 0.00 0.00 0.00 0.00 0.00 0.00 0.00 0.02 0.01 0.00 0.00 0.01 0.05 0.12 0.19 0.10 0.08 0.09 0.02 0.01 0.03 0.04 0.01 0.00 0.00
0.00 0.00 0.00 0.00 0.00 0.00 0.00 0.00 0.00 0.00 0.00 0.00 0.00 0.00 0.00 0.00 0.00 0.00 0.00 0.00 0.00 0.00 0.00 0.00 0.00 0.00 0.00 0.00 0.00 0.01 0.01 0.04 0.00 0.01 0.11 0.08 0.10 0.16 0.16 0.11 0.11 0.05 0.00 0.00 0.00 0.00 0.00 0.00 0.00
0.00 0.00 0.00 0.00 0.00 0.00 0.00 0.00 0.00 0.00 0.00 0.00 0.00 0.00 0.00 0.00 0.00 0.00 0.00 0.00 0.00 0.00 0.00 0.00 0.00 0.00 0.00 0.00 0.00 0.02 0.01 0.02 0.05 0.07 0.14 0.06 0.07 0.15 0.12 0.13 0.08 0.03 0.00 0.01 0.00 0.00 0.00 0.00 0.00
0.00 0.00 0.00 0.00 0.00 0.00 0.00 0.00 0.00 0.00 0.00 0.00 0.00 0.00 0.00 0.00 0.00 0.00 0.00 0.00 0.00 0.00 0.00 0.00 0.00 0.00 0.00 0.00 0.00 0.01 0.07 0.10 0.08 0.01 0.03 0.10 0.05 0.04 0.07 0.06 0.04 0.01 0.02 0.03 0.00 0.00 0.00 0.00 0.00
0.00 0.00 0.00 0.00 0.00 0.00 0.00 0.00 0.00 0.00 0.00 0.00 0.00 0.00 0.00 0.00 0.00 0.00 0.00 0.00 0.00 0.00 0.00 0.00 0.00 0.00 0.00 0.00 0.00 0.00 0.02 0.03 0.05 0.07 0.06 0.05 0.06 0.04 0.02 0.04 0.02 0.01 0.02 0.00 0.00 0.00 0.00 0.00 0.00
0.00 0.00 0.00 0.00 0.00 0.00 0.00 0.00 0.00 0.00 0.00 0.00 0.00 0.00 0.00 0.00 0.00 0.00 0.00 0.00 0.00 0.00 0.00 0.00 0.00 0.00 0.00 0.00 0.00 0.00 0.01 0.02 0.04 0.05 0.03 0.02 0.01 0.01 0.02 0.02 0.01 0.00 0.00 0.00 0.00 0.00 0.00 0.00 0.00
0.00 0.00 0.00 0.00 0.00 0.00 0.00 0.00 0.00 0.00 0.00 0.00 0.00 0.00 0.00 0.00 0.00 0.00 0.00 0.00 0.00 0.00 0.00 0.00 0.00 0.00 0.00 0.00 0.00 0.00 0.00 0.00 0.01 0.01 0.00 0.01 0.01 0.01 0.00 0.00 0.00 0.00 0.00 0.00 0.00 0.00 0.00 0.00 0.00
0.00 0.00 0.00 0.00 0.00 0.00 0.00 0.00 0.00 0.00 0.00 0.00 0.00 0.00 0.00 0.00 0.00 0.00 0.00 0.00 0.00 0.00 0.00 0.00 0.00 0.00 0.00 0.00 0.00 0.00 0.00 0.00 0.00 0.00 0.00 0.00 0.00 0.00 0.00 0.00 0.00 0.00 0.00 0.00 0.00 0.00 0.00 0.00 0.00
0.00 0.00 0.00 0.00 0.00 0.00 0.00 0.00 0.00 0.00 0.00 0.00 0.00 0.00 0.00 0.00 0.00 0.00 0.00 0.00 0.00 0.00 0.00 0.00 0.00 0.00 0.00 0.00 0.00 0.00 0.00 0.00 0.00 0.00 0.00 0.00 0.00 0.00 0.00 0.00 0.00 0.00 0.00 0.00 0.00 0.00 0.00 0.00 0.00
0.00 0.00 0.00 0.00 0.00 0.00 0.00 0.00 0.00 0.00 0.00 0.00 0.00 0.00 0.00 0.00 0.00 0.00 0.00 0.00 0.00 0.00 0.00 0.00 0.00 0.00 0.00 0.00 0.00 0.00 0.00 0.00 0.00 0.00 0.00 0.00 0.00 0.00 0.00 0.00 0.00 0.00 0.00 0.00 0.00 0.00 0.00 0.00 0.00
0.00 0.00 0.00 0.00 0.00 0.00 0.00 0.00 0.00 0.00 0.00 0.00 0.00 0.00 0.00 0.00 0.00 0.00 0.00 0.00 0.00 0.00 0.00 0.00 0.00 0.00 0.00 0.00 0.00 0.00 0.00 0.00 0.00 0.00 0.00 0.00 0.00 0.00 0.00 0.00 0.00 0.00 0.00 0.00 0.00 0.00 0.00 0.00 0.00
0.00 0.00 0.00 0.00 0.00 0.00 0.00 0.00 0.00 0.00 0.00 0.00 0.00 0.00 0.00 0.00 0.00 0.00 0.00 0.00 0.00 0.00 0.00 0.00 0.00 0.00 0.00 0.00 0.00 0.00 0.00 0.00 0.00 0.00 0.00 0.00 0.00 0.00 0.00 0.00 0.00 0.00 0.00 0.00 0.00 0.00 0.00 0.00 0.00
0.00 0.00 0.00 0.00 0.00 0.00 0.00 0.00 0.00 0.00 0.00 0.00 0.00 0.00 0.00 0.00 0.00 0.00 0.00 0.00 0.00 0.00 0.00 0.00 0.00 0.00 0.00 0.00 0.00 0.00 0.00 0.00 0.00 0.00 0.00 0.00 0.00 0.00 0.00 0.00 0.00 0.00 0.00 0.00 0.00 0.00 0.00 0.00 0.00
0.00 0.00 0.00 0.00 0.00 0.00 0.00 0.00 0.00 0.00 0.00 0.00 0.00 0.00 0.00 0.00 0.00 0.00 0.00 0.00 0.00 0.00 0.00 0.00 0.00 0.00 0.00 0.00 0.00 0.00 0.00 0.00 0.00 0.00 0.00 0.00 0.00 0.00 0.00 0.00 0.00 0.00 0.00 0.00 0.00 0.00 0.00 0.00 0.00
0.00 0.00 0.00 0.00 0.00 0.00 0.00 0.00 0.00 0.00 0.00 0.00 0.00 0.00 0.00 0.00 0.00 0.00 0.00 0.00 0.00 0.00 0.00 0.00 0.00 0.00 0.00 0.00 0.00 0.00 0.00 0.00 0.00 0.00 0.00 0.00 0.00 0.00 0.00 0.00 0.00 0.00 0.00 0.00 0.00 0.00 0.00 0.00 0.00
0.00 0.00 0.00 0.00 0.00 0.00 0.00 0.00 0.00 0.00 0.00 0.00 0.00 0.00 0.00 0.00 0.00 0.00 0.00 0.00 0.00 0.00 0.00 0.00 0.00 0.00 0.00 0.00 0.00 0.00 0.00 0.00 0.00 0.00 0.00 0.00 0.00 0.00 0.00 0.00 0.00 0.00 0.00 0.00 0.00 0.00 0.00 0.00 0.00
0.00 0.00 0.00 0.00 0.00 0.00 0.00 0.00 0.00 0.00 0.00 0.00 0.00 0.00 0.00 0.00 0.00 0.00 0.00 0.00 0.00 0.00 0.00 0.00 0.00 0.00 0.00 0.00 0.00 0.00 0.00 0.00 0.00 0.00 0.00 0.00 0.00 0.00 0.00 0.00 0.00 0.00 0.00 0.00 0.00 0.00 0.00 0.00 0.00
MSLP
1009.47 1009.63 1009.83 1009.72 1009.31 1008.51 1009.07 1009.70 1009.91 1010.26 1010.57 1011.09 1011.31 1011.55 1012.56 1013.09 1013.09 1013.95 1014.83 1015.36 1015.59 1015.77 1016.00 1015.98 1016.29 1016.33 1016.51 1016.83 1017.08 1017.22 1017.37 1017.57 1017.94 1018.15 1018.52 1018.58 1018.73 1018.93 1019.02 1019.01 1019.02 1019.23 1019.31 1019.42 1019.31 1019.36 1019.40 1019.29 1019.33
1009.11 1009.42 1009.11 1008.36 1008.16 1008.05 1009.02 1009.56 1009.73 1010.21 1010.92 1011.29 1011.60 1012.04 1012.46 1013.44 1013.80 1014.38 1014.95 1015.39 1015.51 1015.56 1015.92 1016.12 1016.55 1016.57 1016.77 1017.04 1017.29 1017.44 1017.70 1018.05 1018.33 1018.52 1018.74 1018.86 1019.05 1019.13 1019.23 1019.14 1019.29 1019.51 1019.62 1019.53 1019.58 1019.63 1019.56 1019.44 1019.51
1008.93 1008.70 1008.29 1007.93 1008.13 1008.19 1008.87 1009.49 1009.88 1010.41 1010.91 1011.04 1011.71 1012.32 1012.92 1013.75 1014.30 1014.50 1014.85 1015.34 1015.55 1015.84 1016.15 1016.38 1016.77 1016.80 1017.02 1017.35 1017.57 1017.82 1018.07 1018.32 1018.63 1018.80 1018.85 1019.11 1019.23 1019.24 1019.23 1019.39 1019.46 1019.67 1019.74 1019.79 1019.82 1019.80 1019.63 1019.56 1019.51
1008.48 1008.43 1008.35 1007.98 1008.03 1008.68 1009.01 1009.61 1010.01 1010.42 1010.90 1011.31 1011.86 1012.51 1013.48 1014.02 1014.31 1014.60 1015.18 1015.36 1015.74 1016.04 1016.38 1016.73 1016.92 1017.04 1017.30 1017.50 1017.82 1018.10 1018.31 1018.52 1018.72 1018.88 1019.05 1019.24 1019.31 1019.25 1019.44 1019.59 1019.72 1019.84 1019.88 1019.94 1020.02 1019.88 1019.72 1019.70 1019.63
1008.28 1008.10 1007.51 1007.73 1008.11 1008.63 1008.99 1009.70 1010.18 1010.28 1010.88 1011.40 1011.89 1012.88 1013.65 1014.45 1014.58 1015.01 1015.43 1015.64 1015.81 1016.07 1016.49 1016.84 1017.11 1017.24 1017.39 1017.64 1017.90 1018.22 1018.41 1018.62 1018.79 1019.00 1019.15 1019.32 1019.33 1019.48 1019.68 1019.84 1019.93 1019.99 1020.01 1019.99 1019.96 1019.84 1019.81 1019.77 1019.75
1007.66 1007.78 1007.20 1007.43 1008.12 1008.73 1009.25 1009.71 1010.17 1010.66 1011.17 1011.63 1012.05 1012.70 1013.99 1014.69 1014.88 1015.21 1015.59 1015.74 1015.79 1016.19 1016.46 1016.88 1017.33 1017.44 1017.60 1017.79 1018.11 1018.34 1018.54 1018.72 1018.92 1019.04 1019.30 1019.40 1019.51 1019.70 1019.85 1019.91 1019.98 1020.02 1019.96 1019.95 1019.88 1019.81 1019.78 1019.72 1019.74
1007.16 1007.09 1007.28 1007.43 1007.99 1008.51 1009.15 1009.75 1010.04 1010.72 1011.18 1011.63 1012.09 1012.65 1014.23 1014.55 1014.89 1015.38 1015.72 1015.97 1015.94 1016.23 1016.62 1017.00 1017.24 1017.48 1017.75 1018.02 1018.39 1018.56 1018.69 1018.84 1018.95 1019.07 1019.22 1019.40 1019.58 1019.73 1019.84 1019.89 1019.93 1019.87 1019.92 1019.85 1019.82 1019.74 1019.68 1019.68 1019.64
1006.94 1006.79 1006.81 1007.10 1007.39 1008.05 1008.95 1009.61 1010.25 1010.54 1011.23 1011.89 1012.07 1012.63 1013.50 1014.16 1014.92 1015.51 1015.90 1016.17 1016.33 1016.55 1016.85 1017.09 1017.31 1017.49 1017.81 1018.14 1018.51 1018.60 1018.84 1018.96 1019.15 1019.22 1019.38 1019.55 1019.69 1019.81 1019.90 1019.92 1019.91 1019.97 1019.98 1019.88 1019.76 1019.74 1019.67 1019.69 1019.65
1006.98 1006.40 1006.20 1006.50 1006.75 1007.36 1008.59 1009.25 1010.25 1010.62 1011.12 1011.66 1012.04 1012.36 1012.75 1014.10 1014.83 1015.34 1015.87 1016.28 1016.57 1016.85 1017.06 1017.10 1017.33 1017.68 1017.99 1018.18 1018.39 1018.71 1018.89 1019.09 1019.17 1019.25 1019.47 1019.58 1019.56 1019.65 1019.72 1019.88 1019.88 1019.82 1019.82 1019.80 1019.69 1019.70 1019.77 1019.69 1019.69
1006.08 1005.75 1005.51 1005.72 1005.97 1006.53 1007.89 1008.85 1009.75 1010.53 1010.93 1011.45 1012.13 1012.71 1013.37 1014.26 1014.78 1015.02 1015.50 1015.91 1016.28 1016.57 1016.95 1017.17 1017.34 1017.60 1018.00 1018.08 1018.42 1018.55 1018.68 1018.79 1018.99 1019.13 1019.33 1019.46 1019.59 1019.64 1019.72 1019.78 1019.81 1019.72 1019.70 1019.66 1019.61 1019.64 1019.70 1019.53 1019.28
1005.56 1005.09 1005.17 1005.38 1005.96 1006.46 1007.34 1008.55 1009.40 1010.09 1010.58 1010.97 1011.74 1012.64 1013.36 1014.02 1014.56 1014.90 1015.28 1015.67 1016.03 1016.44 1016.82 1017.12 1017.36 1017.71 1017.93 1018.16 1018.42 1018.58 1018.72 1018.86 1018.99 1019.23 1019.36 1019.46 1019.56 1019.62 1019.54 1019.40 1019.44 1019.44 1019.49 1019.29 1019.22 1019.35 1019.20 1019.33 1019.37
1005.16 1004.99 1005.00 1005.30 1005.96 1006.29 1007.05 1008.03 1009.01 1009.62 1009.86 1010.51 1011.56 1012.31 1013.35 1013.88 1014.27 1014.64 1015.14 1015.63 1016.07 1016.44 1016.77 1016.98 1017.18 1017.62 1017.92 1018.08 1018.25 1018.40 1018.49 1018.71 1018.78 1018.95 1019.28 1019.38 1019.38 1019.45 1019.42 1019.29 1019.43 1019.46 1019.39 1019.31 1019.37 1019.29 1019.37 1019.34 1019.45
1004.81 1004.61 1004.93 1005.08 1005.77 1006.26 1007.10 1007.75 1008.71 1009.45 1010.02 1010.52 1011.46 1012.56 1013.10 1013.73 1014.13 1014.55 1014.99 1015.49 1015.89 1016.12 1016.41 1016.72 1016.97 1017.40 1017.72 1017.98 1018.05 1018.17 1018.32 1018.38 1018.53 1018.76 1018.91 1019.03 1019.05 1019.25 1019.26 1019.36 1019.17 1019.31 1019.22 1019.17 1019.36 1019.35 1019.32 1019.24 1019.26
1004.49 1004.69 1004.98 1005.28 1005.88 1006.65 1007.08 1008.15 1008.78 1009.49 1010.28 1010.84 1011.49 1012.30 1012.95 1013.49 1013.97 1014.48 1014.91 1015.27 1015.61 1015.84 1016.02 1016.41 1016.79 1017.10 1017.46 1017.68 1017.88 1017.93 1018.08 1018.16 1018.27 1018.41 1018.44 1018.72 1018.71 1018.90 1019.07 1018.98 1019.03 1019.02 1019.09 1019.06 1019.28 1019.37 1019.30 1019.29 1019.27
1004.49 1004.76 1005.32 1005.74 1006.19 1006.67 1007.27 1008.29 1008.31 1009.26 1010.25 1010.88 1011.44 1012.24 1012.78 1013.17 1013.71 1013.98 1014.40 1014.83 1015.19 1015.47 1015.83 1016.08 1016.43 1016.71 1017.10 1017.28 1017.53 1017.73 1017.75 1017.99 1017.96 1017.89 1018.20 1018.28 1018.31 1018.44 1018.57 1018.82 1018.81 1018.86 1018.94 1019.16 1019.12 1019.18 1019.22 1019.07 1019.02
1004.28 1004.69 1005.02 1005.86 1006.19 1006.80 1006.67 1006.76 1008.04 1009.17 1009.77 1010.51 1011.25 1011.89 1012.40 1012.77 1013.12 1013.53 1013.96 1014.36 1014.75 1015.19 1015.52 1015.90 1016.10 1016.39 1016.80 1016.92 1017.17 1017.32 1017.54 1017.60 1017.65 1017.74 1017.89 1017.89 1017.95 1018.11 1018.23 1018.52 1018.48 1018.71 1018.85 1018.87 1018.83 1019.05 1019.00 1019.04 1018.99
1004.20 1003.85 1004.63 1005.58 1005.84 1006.27 1006.71 1006.60 1007.63 1008.75 1009.40 1010.15 1010.79 1011.17 1011.77 1012.36 1012.69 1012.94 1013.38 1013.80 1014.15 1014.65 1015.10 1015.46 1015.84 1016.06 1016.42 1016.65 1016.86 1017.05 1017.15 1017.30 1017.41 1017.48 1017.43 1017.47 1017.76 1017.87 1017.96 1018.04 1018.30 1018.43 1018.52 1018.76 1018.94 1019.03 1019.13 1018.94 1018.80
1003.05 1003.58 1004.23 1004.34 1005.46 1006.03 1006.51 1006.97 1007.70 1008.60 1009.03 1009.52 1010.24 1010.76 1011.17 1011.53 1011.66 1012.31 1012.83 1013.25 1013.69 1014.19 1014.71 1015.12 1015.51 1015.81 1016.15 1016.42 1016.70 1016.80 1017.03 1016.97 1017.04 1017.19 1017.16 1017.28 1017.57 1017.74 1017.76 1017.88 1018.04 1018.29 1018.49 1018.65 1018.95 1019.17 1019.26 1019.21 1019.04
1002.44 1002.97 1003.27 1004.24 1004.95 1005.71 1006.24 1006.78 1007.58 1008.32 1008.91 1009.08 1009.59 1010.24 1010.51 1010.68 1011.07 1011.64 1012.20 1012.80 1013.34 1013.79 1014.26 1014.66 1015.03 1015.32 1015.81 1016.11 1016.37 1016.51 1016.52 1016.68 1016.84 1016.92 1016.91 1017.19 1017.32 1017.47 1017.55 1017.71 1017.92 1018.23 1018.40 1018.75 1019.09 1019.16 1019.24 1019.04 1019.28
1002.50 1002.61 1003.09 1004.15 1004.84 1005.30 1006.13 1006.34 1007.12 1007.57 1007.97 1008.38 1008.76 1009.33 1009.69 1010.04 1010.60 1011.12 1011.59 1012.11 1012.63 1013.13 1013.55 1014.08 1014.48 1014.87 1015.36 1015.64 1015.97 1016.15 1016.32 1016.37 1016.31 1016.52 1016.76 1016.98 1017.17 1017.33 1017.51 1017.73 1017.99 1018.17 1018.38 1018.73 1018.96 1019.22 1019.17 1019.20 1019.37
1002.31 1002.15 1002.82 1003.19 1004.65 1005.25 1005.65 1005.69 1006.17 1006.72 1007.43 1008.01 1008.20 1008.40 1008.78 1009.06 1009.53 1010.18 1010.83 1011.28 1011.82 1012.42 1012.95 1013.42 1013.80 1014.23 1014.84 1015.35 1015.82 1016.15 1016.32 1016.40 1016.39 1016.51 1016.67 1016.71 1017.01 1017.25 1017.50 1017.72 1017.88 1018.21 1018.37 1018.44 1018.82 1019.08 1019.25 1019.01 1019.31
1001.46 1001.89 1002.40 1003.29 1003.86 1004.17 1005.15 1004.21 1004.74 1005.35 1006.11 1006.75 1007.08 1007.41 1007.57 1008.08 1008.72 1009.15 1009.81 1010.38 1010.90 1011.51 1012.14 1012.69 1013.25 1013.72 1014.28 1014.89 1015.22 1015.50 1015.61 1015.71 1015.90 1016.21 1016.40 1016.67 1016.94 1017.16 1017.45 1017.77 1018.10 1018.31 1018.27 1018.54 1018.68 1018.88 1019.05 1019.14 1018.89
1001.33 1001.76 1002.24 1002.73 1003.23 1004.22 1004.84 1004.84 1003.24 1004.57 1004.73 1004.49 1005.09 1005.65 1006.21 1006.63 1007.29 1007.80 1008.51 1009.30 1009.98 1010.66 1011.33 1011.98 1012.67 1013.20 1013.67 1014.23 1014.61 1015.05 1015.24 1015.32 1015.78 1016.16 1016.49 1016.74 1017.02 1017.26 1017.48 1017.77 1018.01 1018.22 1018.24 1018.57 1018.73 1018.93 1019.07 1019.08 1018.97
1001.82 1002.18 1003.07 1003.48 1003.53 1003.73 1003.44 1003.78 1002.29 1002.97 1002.36 1002.12 1002.95 1004.20 1004.73 1005.35 1005.98 1006.70 1007.59 1008.52 1009.18 1009.97 1010.56 1011.11 1011.80 1012.31 1013.02 1013.63 1014.08 1014.41 1014.59 1014.98 1015.50 1015.84 1016.15 1016.48 1016.93 1017.21 1017.41 1017.59 1017.84 1018.07 1018.25 1018.59 1018.69 1018.95 1019.02 1019.00 1019.10
1001.27 1001.48 1002.47 1003.03 1003.28 1002.55 1002.83 1003.08 1001.39 1000.76 1000.71 1000.63 1001.02 1002.08 1003.14 1004.15 1004.99 1005.58 1006.46 1007.29 1008.05 1008.76 1009.53 1010.20 1010.91 1011.50 1012.29 1012.86 1013.24 1013.66 1014.05 1014.46 1014.89 1015.21 1015.52 1016.01 1016.45 1016.77 1017.02 1017.34 1017.69 1017.92 1018.32 1018.50 1018.58 1018.82 1018.99 1019.04 1018.96
1000.45 1000.54 1000.51 1001.18 1001.82 1002.27 1002.94 1001.67 1000.08 999.65 999.40 1000.17 1000.51 1001.08 1002.36 1003.09 1003.85 1004.54 1005.20 1006.05 1006.94 1007.77 1008.58 1009.30 1009.92 1010.77 1011.39 1011.92 1012.39 1013.03 1013.54 1013.85 1014.22 1014.64 1014.83 1015.29 1015.69 1016.06 1016.46 1017.06 1017.41 1017.81 1018.20 1018.33 1018.55 1018.70 1018.71 1018.83 1018.86
1000.11 1000.05 1000.23 1000.76 1002.08 1001.44 1000.95 1000.91 1000.07 999.14 998.99 999.13 999.46 1000.32 1000.83 1001.53 1002.37 1003.02 1004.21 1005.07 1005.71 1006.61 1007.25 1007.89 1008.81 1009.69 1010.41 1010.99 1011.80 1012.40 1013.04 1013.43 1013.76 1014.36 1014.74 1014.96 1015.44 1015.75 1016.22 1016.47 1017.06 1017.47 1017.82 1018.11 1018.12 1018.10 1018.29 1018.50 1018.63
999.17 999.61 1000.56 1000.45 1000.04 1000.28 1000.22 999.89 998.67 998.21 997.88 997.92 998.61 998.98 999.27 1000.04 1001.22 1002.02 1002.73 1003.74 1004.58 1005.22 1005.98 1007.02 1007.81 1008.44 1009.22 1010.35 1010.89 1011.41 1012.25 1013.01 1013.33 1014.08 1014.64 1014.67 1015.22 1015.62 1015.91 1016.26 1016.84 1017.31 1017.57 1017.71 1018.15 1018.15 1018.28 1018.35 1018.24
999.28 999.20 999.39 999.26 999.36 998.77 998.93 998.02 998.16 997.49 997.13 997.01 997.28 997.74 998.12 999.11 999.92 1000.61 1001.52 1002.67 1003.47 1004.14 1005.20 1005.97 1006.86 1007.68 1008.51 1009.06 1009.71 1010.51 1011.43 1012.36 1012.97 1013.30 1013.96 1015.31 1014.31 1015.19 1015.56 1016.06 1016.59 1016.98 1017.29 1017.56 1017.82 1018.12 1018.12 1018.13 1018.03
997.81 997.91 998.19 997.86 998.88 998.86 998.08 997.07 997.06 996.93 996.61 996.64 996.61 997.07 997.79 998.49 999.10 999.93 1000.92 1001.99 1002.87 1003.53 1004.33 1004.92 1005.59 1006.37 1006.89 1007.62 1008.86 1009.62 1010.79 1011.41 1012.09 1012.77 1013.02 1014.06 1015.76 1014.94 1015.67 1016.07 1016.51 1016.75 1017.07 1017.41 1017.63 1017.77 1017.85 1017.89 1017.53
Thickness
5812 5810 5807 5798 5781 5783 5758 5761 5777 5768 5769 5778 5781 5775 5758 5760 5761 5747 5770 5766 5765 5763 5761 5761 5760 5760 5759 5756 5755 5756 5757 5757 5752 5751 5747 5747 5746 5744 5743 5744 5744 5742 5740 5739 5740 5740 5741 5743 5743
5817 5814 5810 5802 5775 5761 5756 5772 5767 5774 5776 5782 5780 5774 5766 5752 5766 5764 5765 5769 5766 5766 5763 5761 5759 5760 5759 5758 5757 5757 5755 5752 5749 5749 5747 5747 5744 5744 5743 5744 5743 5740 5739 5739 5739 5739 5741 5743 5743
5821 5821 5803 5790 5773 5761 5758 5772 5774 5780 5784 5783 5774 5778 5769 5757 5766 5768 5774 5772 5768 5766 5764 5763 5761 5760 5760 5758 5756 5755 5752 5750 5749 5748 5748 5745 5745 5745 5745 5743 5742 5740 5739 5740 5739 5739 5742 5743 5743
5819 5813 5805 5782 5770 5773 5773 5777 5782 5779 5784 5786 5781 5766 5773 5776 5770 5775 5774 5772 5769 5767 5765 5762 5761 5761 5760 5758 5756 5752 5752 5751 5749 5748 5747 5745 5744 5746 5744 5742 5740 5739 5739 5738 5737 5739 5741 5742 5742
5821 5808 5789 5779 5775 5782 5787 5786 5786 5781 5781 5782 5782 5763 5763 5773 5779 5776 5773 5773 5771 5770 5766 5763 5761 5760 5760 5758 5756 5753 5752 5751 5750 5749 5748 5746 5746 5744 5742 5740 5739 5738 5738 5737 5738 5740 5741 5741 5741
5808 5806 5787 5775 5775 5781 5786 5790 5786 5780 5780 5780 5778 5772 5766 5777 5776 5775 5774 5773 5773 5770 5767 5764 5761 5761 5760 5758 5755 5754 5753 5751 5750 5748 5746 5744 5743 5742 5740 5740 5739 5738 5738 5738 5739 5740 5741 5741 5742
5809 5801 5783 5784 5777 5780 5783 5796 5785 5778 5777 5776 5785 5768 5766 5773 5779 5776 5774 5773 5772 5770 5767 5764 5763 5762 5760 5757 5754 5753 5752 5751 5750 5749 5748 5745 5743 5742 5741 5740 5740 5740 5739 5740 5741 5741 5741 5742 5742
5820 5810 5790 5790 5784 5781 5793 5793 5793 5787 5777 5790 5791 5765 5762 5777 5780 5777 5774 5772 5771 5769 5766 5765 5763 5762 5759 5756 5753 5753 5751 5751 5750 5749 5748 5745 5744 5742 5741 5741 5741 5740 5739 5740 5741 5741 5741 5741 5741
5828 5802 5790 5790 5791 5796 5801 5791 5795 5800 5785 5787 5789 5785 5788 5783 5781 5776 5771 5770 5769 5767 5766 5765 5763 5760 5758 5757 5756 5753 5753 5752 5751 5750 5748 5746 5745 5743 5742 5742 5743 5742 5741 5741 5741 5741 5740 5741 5741
5820 5804 5804 5819 5819 5810 5805 5799 5794 5787 5783 5781 5781 5786 5786 5781 5778 5775 5770 5768 5769 5768 5768 5766 5764 5763 5760 5759 5757 5756 5755 5755 5753 5752 5749 5747 5746 5744 5744 5744 5744 5743 5742 5741 5742 5741 5741 5741 5743
5821 5810 5822 5823 5824 5822 5810 5801 5803 5789 5778 5787 5780 5779 5783 5781 5778 5776 5774 5773 5771 5771 5770 5768 5766 5764 5762 5760 5759 5758 5756 5755 5754 5752 5749 5747 5746 5745 5746 5747 5746 5746 5745 5744 5745 5744 5745 5743 5742
5813 5826 5828 5827 5826 5822 5810 5812 5798 5797 5796 5803 5794 5791 5784 5780 5779 5778 5775 5773 5772 5771 5771 5772 5770 5767 5764 5763 5761 5760 5759 5757 5756 5753 5750 5749 5748 5747 5747 5749 5747 5747 5746 5747 5745 5744 5744 5744 5743
5818 5827 5831 5834 5827 5825 5821 5807 5802 5796 5804 5806 5798 5790 5785 5782 5782 5782 5782 5779 5777 5775 5776 5776 5773 5770 5767 5765 5764 5763 5761 5760 5759 5756 5754 5753 5752 5751 5751 5750 5751 5750 5749 5749 5746 5746 5746 5745 5744
5830 5827 5826 5829 5823 5820 5813 5802 5804 5801 5804 5798 5795 5790 5789 5784 5783 5782 5781 5779 5780 5780 5780 5780 5777 5773 5770 5768 5767 5766 5764 5763 5761 5760 5759 5756 5756 5755 5753 5754 5753 5752 5751 5750 5748 5746 5746 5744 5744
5830 5814 5818 5818 5819 5812 5817 5790 5795 5806 5803 5795 5793 5791 5790 5789 5788 5786 5786 5784 5784 5784 5784 5782 5780 5777 5775 5773 5771 5769 5768 5765 5765 5764 5762 5761 5761 5759 5757 5755 5755 5754 5753 5751 5750 5749 5748 5748 5747
5817 5816 5800 5811 5816 5814 5820 5797 5805 5808 5803 5796 5795 5793 5793 5793 5794 5793 5793 5791 5791 5788 5786 5785 5785 5782 5778 5777 5774 5773 5771 5770 5769 5767 5766 5765 5765 5763 5762 5759 5758 5755 5755 5754 5753 5751 5750 5748 5747
5807 5801 5800 5799 5821 5813 5810 5803 5811 5811 5806 5799 5799 5799 5797 5795 5797 5799 5799 5797 5796 5793 5791 5788 5787 5785 5782 5779 5777 5775 5774 5772 5771 5771 5770 5769 5766 5765 5764 5763 5760 5759 5757 5755 5752 5750 5749 5748 5747
5799 5799 5804 5807 5812 5813 5803 5802 5805 5807 5807 5804 5802 5800 5799 5798 5801 5803 5802 5802 5800 5797 5794 5791 5790 5788 5785 5782 5778 5778 5776 5775 5774 5773 5773 5771 5767 5766 5766 5764 5763 5760 5758 5756 5752 5748 5746 5744 5744
5825 5814 5813 5813 5819 5808 5802 5802 5801 5805 5803 5804 5804 5801 5801 5803 5808 5807 5805 5804 5801 5798 5795 5794 5791 5791 5787 5783 5780 5779 5779 5778 5777 5774 5773 5771 5770 5769 5767 5765 5763 5760 5757 5753 5749 5747 5743 5742 5740
5816 5811 5810 5810 5815 5811 5798 5798 5803 5807 5808 5810 5810 5806 5805 5806 5806 5806 5806 5805 5804 5801 5799 5796 5794 5793 5789 5787 5784 5783 5781 5781 5780 5776 5774 5772 5769 5768 5765 5762 5760 5756 5754 5749 5746 5742 5739 5738 5736
5808 5810 5806 5811 5806 5805 5799 5793 5799 5809 5811 5811 5815 5818 5816 5813 5811 5809 5807 5808 5808 5804 5801 5799 5798 5796 5792 5789 5785 5782 5780 5779 5778 5777 5775 5772 5768 5765 5762 5759 5756 5752 5750 5747 5743 5740 5737 5735 5733
5802 5823 5820 5806 5799 5783 5803 5781 5801 5812 5807 5810 5815 5818 5821 5820 5819 5817 5813 5811 5810 5809 5807 5804 5800 5798 5794 5790 5787 5783 5781 5777 5779 5776 5774 5769 5765 5761 5758 5754 5750 5747 5746 5743 5740 5737 5735 5732 5730
5809 5822 5816 5813 5804 5788 5780 5774 5816 5805 5803 5819 5825 5828 5829 5831 5828 5825 5821 5818 5816 5815 5810 5806 5802 5799 5797 5794 5789 5783 5780 5780 5776 5771 5766 5763 5759 5756 5754 5750 5747 5743 5741 5738 5736 5732 5730 5729 5727
5810 5802 5792 5792 5791 5757 5792 5782 5807 5803 5822 5836 5840 5836 5837 5837 5836 5833 5829 5824 5817 5815 5813 5810 5804 5802 5799 5794 5789 5785 5781 5776 5770 5766 5763 5760 5755 5753 5749 5746 5743 5740 5737 5734 5732 5729 5727 5725 5722
5799 5792 5757 5749 5744 5754 5796 5775 5809 5837 5845 5852 5851 5846 5846 5843 5838 5836 5830 5824 5821 5817 5814 5812 5808 5803 5799 5794 5790 5786 5782 5778 5770 5767 5765 5759 5754 5751 5748 5744 5741 5738 5733 5728 5725 5723 5721 5719 5718
5786 5795 5770 5737 5745 5762 5769 5766 5811 5849 5861 5855 5856 5855 5847 5845 5845 5840 5838 5834 5827 5822 5818 5815 5811 5804 5800 5796 5793 5788 5782 5779 5776 5771 5769 5764 5758 5753 5747 5741 5737 5732 5727 5723 5720 5719 5718 5715 5713
5779 5770 5811 5780 5757 5769 5783 5789 5817 5843 5848 5854 5856 5854 5853 5854 5853 5851 5843 5839 5835 5828 5824 5821 5815 5809 5805 5800 5793 5788 5783 5778 5774 5769 5765 5762 5756 5752 5745 5740 5734 5729 5725 5720 5718 5719 5716 5713 5709
5791 5806 5767 5769 5749 5740 5765 5772 5799 5828 5844 5858 5854 5857 5865 5865 5858 5856 5854 5847 5842 5837 5833 5826 5822 5816 5811 5801 5797 5793 5785 5777 5775 5766 5759 5758 5751 5747 5743 5738 5731 5725 5721 5718 5712 5712 5709 5707 5706
5771 5769 5773 5790 5779 5767 5759 5779 5823 5836 5852 5859 5865 5867 5870 5868 5865 5864 5860 5854 5848 5844 5836 5831 5826 5819 5812 5808 5803 5796 5787 5777 5771 5769 5758 5745 5754 5744 5740 5734 5726 5720 5717 5714 5711 5706 5703 5701 5699
5791 5784 5788 5776 5757 5768 5779 5787 5835 5843 5856 5863 5868 5871 5871 5871 5870 5868 5862 5854 5848 5844 5839 5835 5833 5827 5823 5817 5805 5798 5787 5780 5774 5764 5763 5750 5731 5740 5731 5726 5719 5714 5711 5709 5704 5700 5698 5694 5695